This demonstration page uses our WeatherBlox Daily Observations layout. Learn more.

Left ArrowRight Arrow

39.08367, -84.50855

Hourly Observations for May 25, 2017

Temp ( °F °C ) Dew Point ( °F °C ) Humidity (%) Winds ( mph kmh ) Pressure ( in mb ) Visibility ( mi km ) Precip ( " mm )
12:25 am 00:25 Cloudy 61 16.1 60 15.6 97 97 WSW 6 9 29.38 995 10 16.0934 N/A
12:53 am 00:53 Cloudy 61 16.1 60 15.6 97 97 WSW 7 11 29.38 995 10 16.0934 N/A
1:26 am 01:26 Cloudy with Light Rain 61 16.1 60 15.6 97 97 W 8 13 29.41 996 9 14.48406 N/A
1:53 am 01:53 Cloudy with Light Rain 60 15.6 60 15.6 100 100 SW 3 6 29.39 995 4 6.43736 0.01 0.254
2:04 am 02:04 Cloudy with Light Rain 60 15.6 59 15 96 96 SW 5 7 29.41 996 4 6.43736 0.01 0.254
2:16 am 02:16 Cloudy with Light Rain 60 15.6 60 15.6 100 100 SW 6 9 29.41 996 9 14.48406 0.01 0.254
2:53 am 02:53 Cloudy with Light Rain 60 15.6 60 15.6 100 100 SW 6 9 29.38 995 10 16.0934 0.01 0.254
3:49 am 03:49 Cloudy with Light Rain 61 16 59 15 94 94 SSW 7 11 29.38 995 10 16.0934 0.02 0.508
3:53 am 03:53 Cloudy with Light Rain 60 15.6 59 15 96 96 SSW 7 11 29.38 995 8 12.87472 0.03 0.762
4:01 am 04:01 Cloudy with Light Rain 59 15 59 15 100 100 S 6 9 29.38 995 7 11.26538 N/A
4:09 am 04:09 Cloudy with Light Rain 59 15 59 15 100 100 S 5 7 29.38 995 8 12.87472 N/A
4:30 am 04:30 Cloudy with Rain 59 15 59 15 100 100 SSW 5 7 29.38 995 5 8.0467 0.02 0.508
4:53 am 04:53 Cloudy with Light Rain 60 15.6 59 15 96 96 SW 7 11 29.38 995 8 12.87472 0.04 1.016
5:07 am 05:07 Cloudy with Light Rain 60 15.6 59 15 96 96 SW 7 11 29.41 996 10 16.0934 N/A
5:23 am 05:23 Cloudy with Light Rain 60 15.6 59 15 96 96 SW 7 11 29.41 996 10 16.0934 N/A
5:30 am 05:30 Cloudy with Light Rain 60 15.6 59 15 96 96 SW 8 13 29.41 996 7 11.26538 0.01 0.254
5:43 am 05:43 Cloudy with Light Rain 60 15.6 59 15 96 96 SW 9 15 29.41 996 9 14.48406 0.01 0.254
5:53 am 05:53 Cloudy with Rain 60 15.6 59 15 96 96 SW 10 17 29.39 995 5 8.0467 0.03 0.762
6:28 am 06:28 Cloudy with Rain 59 15 58 14.4 96 96 SW 9 15 29.41 996 6 9.65604 0.04 1.016
6:38 am 06:38 Cloudy with Light Rain 59 15 58 14.4 96 96 SW 7 11 29.41 996 6 9.65604 0.05 1.27
6:48 am 06:48 Cloudy with Light Rain 59 15 57 14 94 94 SSW 8 13 29.41 996 6 9.65604 0.06 1.524
6:53 am 06:53 Cloudy with Rain 59 15 58 14.4 96 96 SSW 8 13 29.4 996 6 9.65604 0.07 1.778
7:14 am 07:14 Cloudy with Rain 59 15 58 14.4 96 96 SW 8 13 29.41 996 5 8.0467 0.04 1.016
7:23 am 07:23 Cloudy with Rain 59 15 58 14.4 96 96 SSW 9 15 29.41 996 5 8.0467 0.06 1.524
7:53 am 07:53 Cloudy with Rain 58 14.4 58 14.4 100 100 S 10 17 29.4 996 5 8.0467 0.11 2.794
8:13 am 08:13 Cloudy with Rain 58 14.4 58 14.4 100 100 S 9 15 29.41 996 2 3.21868 0.05 1.27
8:37 am 08:37 Cloudy with Light Rain 58 14.4 58 14.4 100 100 SSW 8 13 29.41 996 2 3.21868 0.09 2.286
8:53 am 08:53 Cloudy with Light Rain 58 14.4 58 14.4 100 100 SSW 8 13 29.41 996 2 3.21868 0.11 2.794
9:53 am 09:53 Cloudy with Light Rain 59 15 58 14.4 96 96 WSW 8 13 29.42 996 5 8.0467 0.02 0.508
10:53 am 10:53 Cloudy 61 16.1 58 14.4 90 90 NW 5 7 29.44 997 7 11.26538 N/A
11:53 am 11:53 Cloudy 65 18.3 60 15.6 84 84 WNW 8 13 29.45 997 10 16.0934 N/A
12:41 pm 12:41 Mostly Cloudy 66 18.9 60 15.6 81 81 W 14 22 29.47 998 10 16.0934 N/A
12:49 pm 12:49 Mostly Cloudy 66 19 61 16 83 83 W 12 19 29.47 998 10 16.0934 N/A
12:53 pm 12:53 Cloudy 67 19.4 62 16.7 84 84 W 15 24 29.47 998 10 16.0934 N/A
1:40 pm 13:40 Cloudy 64 17.8 60 15.6 87 87 W 18 30 29.5 999 9 14.48406 N/A
1:46 pm 13:46 Cloudy with Heavy Rain 62 16.7 60 15.6 93 93 W 15 24 29.5 999 1.5 2.41401 0.06 1.524
1:53 pm 13:53 Cloudy with Light Rain 62 16.7 61 16.1 96 96 WSW 12 19 29.49 999 5 8.0467 0.06 1.524
2:12 pm 14:12 Cloudy 63 17.2 61 16.1 93 93 W 15 24 29.5 999 10 16.0934 N/A
2:45 pm 14:45 Mostly Cloudy 65 18.3 61 16.1 87 87 W 16 26 29.5 999 10 16.0934 N/A
2:53 pm 14:53 Mostly Cloudy 66 18.9 61 16.1 84 84 WNW 14 22 29.51 999 10 16.0934 N/A
3:53 pm 15:53 Cloudy 64 17.8 60 15.6 87 87 W 16 26 29.54 1000 10 16.0934 N/A
4:53 pm 16:53 Cloudy 63 17.2 59 15 87 87 W 10 17 29.58 1002 9 14.48406 N/A
5:53 pm 17:53 Cloudy 64 17.8 59 15 84 84 W 10 17 29.6 1003 10 16.0934 N/A
6:30 pm 18:30 Cloudy 64 17.8 58 14.4 81 81 W 12 19 29.62 1003 10 16.0934 N/A
6:51 pm 18:51 Cloudy 64 18 57 14 78 78 WNW 10 17 29.65 1004 10 16.0934 N/A
6:53 pm 18:53 Cloudy 64 17.8 58 14.4 81 81 W 9 15 29.63 1003 10 16.0934 N/A
7:17 pm 19:17 Cloudy 64 17.8 58 14.4 81 81 W 10 17 29.65 1004 10 16.0934 N/A
7:53 pm 19:53 Cloudy 64 17.8 58 14.4 81 81 W 8 13 29.66 1004 10 16.0934 N/A
8:53 pm 20:53 Cloudy 64 17.8 57 13.9 78 78 W 12 19 29.69 1006 10 16.0934 N/A
9:53 pm 21:53 Cloudy 63 17.2 57 13.9 81 81 W 12 19 29.72 1006 10 16.0934 N/A
10:53 pm 22:53 Cloudy 63 17.2 57 13.9 81 81 W 10 17 29.75 1007 10 16.0934 N/A
11:53 pm 23:53 Cloudy 62 16.7 58 14.4 86 86 WSW 6 9 29.77 1008 10 16.0934 N/A

Powered by AerisWeather